Oshkosh, WI

2:43 PM CDT on May 26, 2018 (GMT -0500)
Wittman Regional

Weather History for KOSH - April, 2014

Change the Weather History Date:

Thursday, April 10, 2014

  Actual Average Record
Temperature  
Mean Temperature 54 °F -  
Max Temperature 63 °F 51 °F 82 °F (1977)
Min Temperature 43 °F 31 °F 17 °F (1989)
Degree Days  
Heating Degree Days 12    
Growing Degree Days 4 (Base 50)    
Moisture  
Dew Point 25 °F    
Average Humidity 37    
Maximum Humidity 56    
Minimum Humidity 17    
Precipitation  
Precipitation 0.00 in - - ()
Sea Level Pressure  
Sea Level Pressure 29.70 in    
Wind  
Wind Speed 15 mph (West)    
Max Wind Speed 22 mph    
Max Gust Speed 29 mph    
Visibility 10 miles    
Events      
Averages and records for this station are not official NWS values.
T = Trace of Precipitation, MM = Missing Value Source: NWS Daily Summary

Daily Weather History Graph

Daily Weather History Graph

Search for Another Location

Airport or City:

Astronomy

Apr. 10, 2014 Rise Set
Actual Time 6:19 AM CDT 7:32 PM CDT
Civil Twilight 5:49 AM CDT 8:01 PM CDT
Nautical Twilight 5:14 AM CDT 8:37 PM CDT
Astronomical Twilight 4:36 AM CDT 9:15 PM CDT
Moon 3:07 PM CDT (4/10) 3:51 AM CDT (4/10)
Length of Visible Light 14h 11m
Length of Day
13h 12m
Waxing Gibbous, 80% of the Moon is Illuminated
Apr 10
Waxing Gibbous
Apr 15
Full
Apr 22
Last Quarter
Apr 29
New
May 6
First Quarter

Hourly Weather History & Observations

Time (CDT) Temp. Windchill Dew Point Humidity Pressure Visibility Wind Dir Wind Speed Gust Speed Precip Events Conditions
12:53 AM 52.0 °F - 32.0 °F 47% 29.62 in 10.0 mi SSW 21.9 mph - N/A   Clear
1:53 AM 51.1 °F - 32.0 °F 48% 29.60 in 10.0 mi SSW 18.4 mph 28.8 mph N/A   Clear
2:53 AM 51.1 °F - 32.0 °F 48% 29.57 in 10.0 mi SSW 19.6 mph 28.8 mph N/A   Clear
3:53 AM 51.1 °F - 32.0 °F 48% 29.55 in 10.0 mi SSW 17.3 mph 24.2 mph N/A   Clear
4:53 AM 51.1 °F - 32.0 °F 48% 29.56 in 10.0 mi SSW 15.0 mph 23.0 mph N/A   Scattered Clouds
5:53 AM 48.9 °F - 32.0 °F 52% 29.58 in 10.0 mi SSW 12.7 mph - N/A   Clear
6:53 AM 48.0 °F - 33.1 °F 56% 29.60 in 10.0 mi SSW 10.4 mph - N/A   Clear
7:53 AM 51.1 °F - 34.0 °F 52% 29.62 in 10.0 mi SW 4.6 mph - N/A   Clear
9:53 AM 55.0 °F - 37.0 °F 51% 29.64 in 10.0 mi WNW 15.0 mph - N/A   Scattered Clouds
10:53 AM 55.0 °F - 35.1 °F 47% 29.68 in 10.0 mi WNW 13.8 mph - N/A   Partly Cloudy
11:53 AM 55.0 °F - 30.0 °F 38% 29.69 in 10.0 mi West 15.0 mph 24.2 mph N/A   Overcast
12:53 PM 59.0 °F - 23.0 °F 25% 29.69 in 10.0 mi WNW 15.0 mph - N/A   Clear
1:53 PM 61.0 °F - 19.0 °F 20% 29.70 in 10.0 mi West 16.1 mph 24.2 mph N/A   Clear
2:53 PM 61.0 °F - 16.0 °F 17% 29.71 in 10.0 mi WNW 19.6 mph 27.6 mph N/A   Clear
3:53 PM 61.0 °F - 15.1 °F 17% 29.71 in 10.0 mi WNW 17.3 mph 25.3 mph N/A   Clear
4:53 PM 63.0 °F - 17.1 °F 17% 29.72 in 10.0 mi NW 13.8 mph 25.3 mph N/A   Clear
6:53 PM 57.0 °F - 16.0 °F 20% 29.80 in 10.0 mi NW 15.0 mph 24.2 mph N/A   Clear
7:53 PM 52.0 °F - 17.1 °F 25% 29.84 in 10.0 mi NW 8.1 mph - N/A   Clear
8:53 PM 48.0 °F - 18.0 °F 30% 29.88 in 10.0 mi WNW 5.8 mph - N/A   Clear
9:53 PM 48.0 °F - 17.1 °F 29% 29.90 in 10.0 mi NW 5.8 mph - N/A   Clear
10:53 PM 44.1 °F 42.5 °F 18.0 °F 35% 29.91 in 10.0 mi West 3.5 mph - N/A   Clear
11:53 PM 43.0 °F 39.5 °F 18.0 °F 37% 29.93 in 10.0 mi West 5.8 mph - N/A   Clear